TimeCDT,TemperatureF,Dew PointF,Humidity,Sea Level PressureIn,VisibilityMPH,Wind Direction,Wind SpeedMPH,Gust SpeedMPH,PrecipitationIn,Events,Conditions,WindDirDegrees,DateUTC
12:48 AM,48.2,42.8,82,30.19,10.0,NNE,5.8,-,0.01,Rain-Thunderstorm,Light Rain,30,2013-03-29 05:48:00
12:53 AM,48.0,42.1,80,30.19,10.0,NNE,5.8,-,0.01,Rain-Thunderstorm,Light Rain,20,2013-03-29 05:53:00
1:03 AM,48.2,41.0,76,30.19,10.0,NNE,5.8,-,0.00,,Overcast,20,2013-03-29 06:03:00
1:53 AM,46.9,41.0,80,30.19,5.0,ESE,5.8,-,0.01,Rain,Light Rain,110,2013-03-29 06:53:00
2:53 AM,46.0,39.9,79,30.18,10.0,East,4.6,-,0.01,,Overcast,80,2013-03-29 07:53:00
3:53 AM,44.1,39.9,85,30.17,9.0,NE,5.8,-,N/A,,Overcast,40,2013-03-29 08:53:00
4:53 AM,42.1,37.9,85,30.17,8.0,NE,5.8,-,N/A,,Clear,50,2013-03-29 09:53:00
5:53 AM,41.0,37.0,86,30.19,7.0,NE,5.8,-,N/A,,Clear,50,2013-03-29 10:53:00
6:53 AM,39.9,36.0,86,30.20,7.0,NE,3.5,-,N/A,,Clear,50,2013-03-29 11:53:00
7:53 AM,41.0,37.0,86,30.22,5.0,Calm,Calm,-,N/A,,Clear,0,2013-03-29 12:53:00
8:53 AM,45.0,39.0,80,30.22,7.0,ENE,4.6,-,N/A,,Clear,60,2013-03-29 13:53:00
9:53 AM,51.1,43.0,74,30.23,9.0,ENE,3.5,-,N/A,,Clear,70,2013-03-29 14:53:00
10:53 AM,54.0,46.0,75,30.23,10.0,Calm,Calm,-,N/A,,Clear,0,2013-03-29 15:53:00
11:53 AM,59.0,45.0,60,30.22,10.0,NE,10.4,-,N/A,,Clear,50,2013-03-29 16:53:00
12:53 PM,62.1,44.1,52,30.21,10.0,ESE,8.1,-,N/A,,Clear,110,2013-03-29 17:53:00
1:53 PM,64.0,42.1,45,30.19,10.0,ENE,9.2,-,N/A,,Clear,70,2013-03-29 18:53:00
2:53 PM,64.9,39.0,39,30.18,10.0,ESE,10.4,-,N/A,,Clear,110,2013-03-29 19:53:00
3:53 PM,66.0,36.0,33,30.16,10.0,East,10.4,17.3,N/A,,Clear,90,2013-03-29 20:53:00
4:53 PM,66.0,35.1,32,30.15,10.0,East,6.9,-,N/A,,Clear,90,2013-03-29 21:53:00
5:53 PM,64.9,36.0,34,30.15,10.0,East,9.2,-,N/A,,Clear,90,2013-03-29 22:53:00
6:53 PM,63.0,36.0,37,30.16,10.0,East,6.9,-,N/A,,Clear,90,2013-03-29 23:53:00
7:53 PM,57.9,35.1,42,30.16,10.0,East,6.9,-,N/A,,Clear,90,2013-03-30 00:53:00
8:53 PM,55.9,35.1,45,30.17,10.0,East,6.9,-,N/A,,Clear,90,2013-03-30 01:53:00
9:53 PM,52.0,37.0,57,30.17,10.0,East,5.8,-,N/A,,Clear,100,2013-03-30 02:53:00
10:53 PM,50.0,37.0,61,30.17,10.0,ESE,6.9,-,N/A,,Clear,110,2013-03-30 03:53:00
11:53 PM,48.0,37.0,66,30.16,10.0,ESE,6.9,-,N/A,,Clear,110,2013-03-30 04:53:00